| time (UTC) | temp F | wind direction | speed MPH | gust MPH | rain 1hr in | rain 24hr in | rain mn in | humidity % | barometer mb |
| 20260510103100 | 54 | 330 | 0.0 | 0.0 | 0.00 | 0.00 | 0.00 | 99 | 992.1 |
| 20260510101602 | 54 | 330 | 0.0 | 0.0 | 0.00 | 0.00 | 0.00 | 99 | 992.0 |
| 20260510100107 | 54 | 330 | 0.0 | 0.0 | 0.00 | 0.00 | 0.00 | 99 | 991.8 |
| 20260510100002 | 54 | 330 | 0.0 | 0.0 | 0.00 | 0.00 | 0.00 | 99 | 991.8 |
| 20260510094559 | 54 | 330 | 0.0 | 0.0 | 0.00 | 0.00 | 0.00 | 99 | 991.6 |
| 20260510093100 | 54 | 330 | 0.0 | 0.0 | 0.00 | 0.00 | 0.00 | 98 | 991.4 |
| 20260510091601 | 55 | 330 | 0.0 | 0.0 | 0.00 | 0.00 | 0.00 | 99 | 991.4 |
| 20260510090002 | 55 | 330 | 0.0 | 0.0 | 0.00 | 0.00 | 0.00 | 99 | 991.4 |
| 20260510084601 | 55 | 234 | 0.0 | 0.0 | 0.00 | 0.00 | 0.00 | 98 | 991.4 |
| 20260510083102 | 56 | 244 | 0.0 | 0.0 | 0.00 | 0.00 | 0.00 | 98 | 991.4 |
| 20260510081559 | 56 | 244 | 0.0 | 0.0 | 0.00 | 0.00 | 0.00 | 98 | 991.3 |
| 20260510080105 | 56 | 244 | 0.0 | 0.0 | 0.00 | 0.00 | 0.00 | 98 | 991.1 |
| 20260510080001 | 56 | 244 | 0.0 | 0.0 | 0.00 | 0.00 | 0.00 | 98 | 991.1 |
| 20260510074559 | 56 | 244 | 0.0 | 0.0 | 0.00 | 0.00 | 0.00 | 98 | 991.0 |
| 20260510073116 | 57 | 244 | 0.0 | 0.0 | 0.00 | 0.00 | 0.00 | 98 | 990.9 |
| 20260510071559 | 57 | 244 | 0.0 | 0.0 | 0.00 | 0.00 | 0.00 | 98 | 990.9 |
| 20260510070106 | 57 | 244 | 0.0 | 0.0 | 0.00 | 0.00 | 0.00 | 98 | 990.8 |
| 20260510064636 | 58 | 244 | 0.0 | 0.0 | 0.00 | 0.00 | 0.00 | 97 | 991.1 |
| 20260510063058 | 58 | 244 | 0.0 | 0.0 | 0.00 | 0.00 | 0.00 | 97 | 991.0 |
| 20260510061558 | 58 | 244 | 0.0 | 0.0 | 0.00 | 0.00 | 0.00 | 97 | 990.9 |
| 20260510060058 | 59 | 244 | 0.0 | 0.0 | 0.00 | 0.00 | 0.00 | 97 | 991.0 |
| 20260510060007 | 59 | 244 | 0.0 | 0.0 | 0.00 | 0.00 | 0.00 | 97 | 991.0 |
| 20260510054501 | 59 | 244 | 0.0 | 0.0 | 0.00 | 0.00 | 0.00 | 97 | 990.9 |
| 20260510053003 | 60 | 244 | 0.0 | 0.0 | 0.00 | 0.00 | 0.00 | 96 | 991.1 |
| 20260510051502 | 60 | 244 | 0.0 | 0.0 | 0.00 | 0.00 | 0.00 | 96 | 991.1 |
| 20260510050006 | 61 | 244 | 0.0 | 0.0 | 0.00 | 0.00 | 0.00 | 95 | 991.0 |
| 20260510044501 | 61 | 244 | 0.0 | 0.0 | 0.00 | 0.00 | 0.00 | 96 | 990.9 |
| 20260510043002 | 62 | 244 | 0.0 | 2.0 | 0.00 | 0.00 | 0.00 | 96 | 991.0 |
| 20260510041503 | 62 | 234 | 0.0 | 3.0 | 0.00 | 0.00 | 0.00 | 96 | 991.1 |
| 20260510040002 | 62 | 227 | 1.0 | 4.0 | 0.00 | 0.00 | 0.00 | 95 | 991.2 |
| 20260510034618 | 62 | 219 | 0.0 | 2.0 | 0.00 | 0.00 | 0.00 | 95 | 991.3 |
| 20260510033106 | 62 | 258 | 0.0 | 1.0 | 0.00 | 0.00 | 0.00 | 94 | 991.1 |
| 20260510031601 | 62 | 268 | 0.0 | 0.0 | 0.00 | 0.00 | 0.00 | 94 | 991.1 |
| 20260510030110 | 63 | 223 | 0.0 | 0.0 | 0.00 | 0.00 | 0.00 | 93 | 991.1 |
| 20260510030003 | 63 | 223 | 0.0 | 0.0 | 0.00 | 0.00 | 0.00 | 93 | 991.1 |
| 20260510024602 | 63 | 223 | 0.0 | 3.0 | 0.00 | 0.00 | 0.00 | 93 | 990.9 |
| 20260510023100 | 64 | 255 | 0.0 | 0.0 | 0.00 | 0.00 | 0.00 | 92 | 990.8 |
| 20260510021605 | 64 | 255 | 0.0 | 1.0 | 0.00 | 0.00 | 0.00 | 91 | 990.5 |
| 20260510020100 | 65 | 274 | 0.0 | 0.0 | 0.00 | 0.00 | 0.00 | 89 | 990.2 |
| 20260510020003 | 65 | 274 | 0.0 | 0.0 | 0.00 | 0.00 | 0.00 | 89 | 990.2 |
| 20260510014607 | 66 | 274 | 0.0 | 0.0 | 0.00 | 0.00 | 0.00 | 89 | 989.7 |
| 20260510013135 | 66 | 274 | 0.0 | 0.0 | 0.00 | 0.00 | 0.00 | 86 | 989.5 |
| 20260510011600 | 68 | 274 | 0.0 | 0.0 | 0.00 | 0.00 | 0.00 | 85 | 989.2 |
| 20260510010059 | 69 | 274 | 0.0 | 0.0 | 0.00 | 0.00 | 0.00 | 83 | 988.9 |
| 20260510010002 | 69 | 274 | 0.0 | 0.0 | 0.00 | 0.00 | 0.00 | 83 | 988.9 |
| 20260510004600 | 70 | 274 | 0.0 | 0.0 | 0.00 | 0.00 | 0.00 | 82 | 988.6 |
| 20260510003107 | 72 | 274 | 0.0 | 0.0 | 0.00 | 0.00 | 0.00 | 79 | 988.5 |
| 20260510001600 | 73 | 274 | 0.0 | 0.0 | 0.00 | 0.00 | 0.00 | 77 | 988.4 |
| 20260510000127 | 73 | 274 | 0.0 | 3.0 | 0.00 | 0.00 | 0.00 | 76 | 988.4 |
| 20260510000002 | 73 | 274 | 0.0 | 3.0 | 0.00 | 0.00 | 0.00 | 76 | 988.4 |
| 20260509234700 | 74 | 266 | 0.0 | 0.0 | 0.00 | 0.00 | 0.00 | 74 | 988.1 |
| 20260509233100 | 75 | 276 | 1.0 | 3.0 | 0.00 | 0.00 | 0.00 | 73 | 988.2 |
| 20260509231623 | 76 | 274 | 1.0 | 3.0 | 0.00 | 0.00 | 0.00 | 73 | 988.3 |
| 20260509230109 | 76 | 265 | 0.0 | 2.0 | 0.00 | 0.00 | 0.00 | 74 | 988.1 |
| 20260509230003 | 76 | 265 | 0.0 | 2.0 | 0.00 | 0.00 | 0.00 | 73 | 988.1 |
| 20260509224600 | 76 | 256 | 0.0 | 2.0 | 0.00 | 0.00 | 0.00 | 69 | 988.1 |
| 20260509223111 | 77 | 274 | 0.0 | 1.0 | 0.00 | 0.00 | 0.00 | 69 | 987.9 |
| 20260509221626 | 78 | 218 | 0.0 | 3.0 | 0.00 | 0.00 | 0.00 | 65 | 987.9 |
| 20260509220002 | 78 | 275 | 2.0 | 7.0 | 0.00 | 0.00 | 0.00 | 60 | 987.6 |
| 20260509214604 | 79 | 294 | 4.0 | 9.0 | 0.00 | 0.00 | 0.00 | 59 | 987.6 |
| 20260509213100 | 79 | 268 | 1.0 | 7.0 | 0.00 | 0.00 | 0.00 | 61 | 987.5 |
| 20260509211606 | 79 | 279 | 3.0 | 10.0 | 0.00 | 0.00 | 0.00 | 60 | 987.7 |
| 20260509210101 | 79 | 304 | 1.0 | 8.0 | 0.00 | 0.00 | 0.00 | 59 | 987.8 |
| 20260509210001 | 79 | 330 | 2.0 | 8.0 | 0.00 | 0.00 | 0.00 | 61 | 987.8 |
| 20260509204603 | 79 | 233 | 3.0 | 6.0 | 0.00 | 0.00 | 0.00 | 57 | 987.9 |
| 20260509203100 | 79 | 267 | 3.0 | 8.0 | 0.00 | 0.00 | 0.00 | 56 | 988.1 |
| 20260509201600 | 79 | 307 | 4.0 | 10.0 | 0.00 | 0.00 | 0.00 | 59 | 988.2 |
| 20260509200112 | 80 | 260 | 1.0 | 5.0 | 0.00 | 0.00 | 0.00 | 58 | 988.1 |
| 20260509200003 | 80 | 253 | 0.0 | 5.0 | 0.00 | 0.00 | 0.00 | 58 | 988.1 |
| 20260509194559 | 79 | 222 | 7.0 | 11.0 | 0.00 | 0.00 | 0.00 | 56 | 988.4 |
| 20260509193103 | 79 | 308 | 1.0 | 10.0 | 0.00 | 0.00 | 0.00 | 60 | 988.2 |
| 20260509193002 | 79 | 282 | 1.0 | 10.0 | 0.00 | 0.00 | 0.00 | 58 | 988.3 |
| 20260509191604 | 79 | 311 | 4.0 | 10.0 | 0.00 | 0.00 | 0.00 | 59 | 988.4 |
| 20260509190100 | 77 | 93 | 1.0 | 10.0 | 0.00 | 0.00 | 0.00 | 60 | 988.5 |
| 20260509190002 | 77 | 241 | 3.0 | 10.0 | 0.00 | 0.00 | 0.00 | 61 | 988.5 |
| 20260509184603 | 77 | 159 | 1.0 | 7.0 | 0.00 | 0.00 | 0.00 | 67 | 988.7 |
| 20260509183108 | 77 | 296 | 6.0 | 11.0 | 0.00 | 0.00 | 0.00 | 62 | 988.8 |
| 20260509181600 | 77 | 254 | 2.0 | 7.0 | 0.00 | 0.00 | 0.00 | 65 | 988.9 |
| 20260509180101 | 77 | 273 | 4.0 | 10.0 | 0.00 | 0.00 | 0.00 | 63 | 988.8 |
| 20260509180006 | 77 | 243 | 1.0 | 10.0 | 0.00 | 0.00 | 0.00 | 63 | 988.8 |
| 20260509174600 | 76 | 293 | 4.0 | 9.0 | 0.00 | 0.00 | 0.00 | 66 | 988.8 |
| 20260509173104 | 75 | 127 | 2.0 | 11.0 | 0.00 | 0.00 | 0.00 | 69 | 988.9 |
| 20260509171600 | 75 | 144 | 3.0 | 9.0 | 0.00 | 0.00 | 0.00 | 71 | 988.8 |
| 20260509170100 | 73 | 301 | 4.0 | 8.0 | 0.00 | 0.00 | 0.00 | 73 | 989.1 |
| 20260509170002 | 73 | 244 | 3.0 | 8.0 | 0.00 | 0.00 | 0.00 | 75 | 989.1 |
| 20260509164602 | 72 | 117 | 2.0 | 10.0 | 0.00 | 0.00 | 0.00 | 74 | 989.2 |
| 20260509163105 | 72 | 120 | 5.0 | 11.0 | 0.00 | 0.00 | 0.00 | 77 | 989.3 |
| 20260509161604 | 71 | 228 | 3.0 | 8.0 | 0.00 | 0.00 | 0.00 | 77 | 989.3 |
| 20260509160059 | 71 | 240 | 2.0 | 12.0 | 0.00 | 0.00 | 0.00 | 77 | 989.4 |
| 20260509160002 | 71 | 209 | 2.0 | 12.0 | 0.00 | 0.00 | 0.00 | 78 | 989.4 |
| 20260509154606 | 69 | 179 | 2.0 | 7.0 | 0.00 | 0.00 | 0.00 | 81 | 989.2 |
| 20260509153059 | 68 | 233 | 2.0 | 7.0 | 0.00 | 0.00 | 0.00 | 82 | 989.1 |
| 20260509151601 | 66 | 162 | 2.0 | 8.0 | 0.00 | 0.00 | 0.00 | 87 | 989.0 |
| 20260509150104 | 64 | 201 | 3.0 | 8.0 | 0.00 | 0.00 | 0.00 | 91 | 989.3 |
| 20260509150008 | 64 | 166 | 2.0 | 6.0 | 0.00 | 0.00 | 0.00 | 90 | 989.3 |
| 20260509144600 | 63 | 243 | 2.0 | 9.0 | 0.00 | 0.00 | 0.00 | 92 | 989.2 |
| 20260509143103 | 62 | 212 | 1.0 | 6.0 | 0.00 | 0.00 | 0.00 | 95 | 989.4 |
| 20260509141602 | 61 | 263 | 0.0 | 8.0 | 0.00 | 0.00 | 0.00 | 96 | 989.2 |
| 20260509140107 | 60 | 224 | 1.0 | 7.0 | 0.00 | 0.00 | 0.00 | 98 | 989.2 |
| 20260509140002 | 60 | 165 | 2.0 | 7.0 | 0.00 | 0.00 | 0.00 | 98 | 989.2 |
| 20260509134559 | 59 | 191 | 1.0 | 5.0 | 0.00 | 0.00 | 0.00 | 98 | 989.0 |
| 20260509133100 | 59 | 271 | 3.0 | 8.0 | 0.00 | 0.00 | 0.00 | 99 | 988.8 |
| 20260509131559 | 59 | 233 | 5.0 | 10.0 | 0.00 | 0.00 | 0.00 | 99 | 988.7 |
| 20260509130059 | 58 | 211 | 1.0 | 8.0 | 0.00 | 0.00 | 0.00 | 99 | 988.7 |
| 20260509130001 | 58 | 158 | 0.0 | 8.0 | 0.00 | 0.00 | 0.00 | 99 | 988.7 |
| 20260509124558 | 57 | 197 | 1.0 | 8.0 | 0.00 | 0.00 | 0.00 | 99 | 988.7 |
| 20260509123119 | 57 | 235 | 0.0 | 8.0 | 0.00 | 0.00 | 0.00 | 99 | 988.8 |
| 20260509121601 | 56 | 123 | 1.0 | 7.0 | 0.00 | 0.00 | 0.00 | 100 | 988.8 |
| 20260509120059 | 56 | 201 | 1.0 | 6.0 | 0.00 | 0.00 | 0.00 | 100 | 988.8 |
| 20260509120001 | 55 | 176 | 0.0 | 6.0 | 0.00 | 0.00 | 0.00 | 100 | 988.8 |
| 20260509114559 | 54 | 152 | 0.0 | 2.0 | 0.00 | 0.00 | 0.00 | 99 | 988.6 |
| 20260509113105 | 53 | 122 | 0.0 | 3.0 | 0.00 | 0.00 | 0.00 | 99 | 988.3 |
| 20260509111559 | 53 | 172 | 0.0 | 0.0 | 0.00 | 0.00 | 0.00 | 98 | 988.1 |
| 20260509110058 | 52 | 173 | 0.0 | 1.0 | 0.00 | 0.00 | 0.00 | 97 | 987.8 |
| 20260509110001 | 52 | 172 | 0.0 | 1.0 | 0.00 | 0.00 | 0.00 | 97 | 987.8 |
| 20260509104558 | 53 | 172 | 0.0 | 0.0 | 0.00 | 0.00 | 0.00 | 97 | 987.6 |